{"data":{"norad_id":61210,"epoch":"2026-05-25T00:40:17.497920Z","epoch_age_seconds":69861,"freshness":"FRESH","line1":"1 61210U 24171L   26145.02798030  .00001530  00000+0  17483-4 0  9997","line2":"2 61210  53.1591 160.2937 0001082  98.1307 261.9833 15.69715451 96385","mean_motion":15.69715451,"eccentricity":0.0001082,"inclination_deg":53.1591,"raan_deg":160.2937,"arg_perigee_deg":98.1307,"mean_anomaly_deg":261.9833,"bstar":1.7483e-5,"rev_number":9638,"period_min":91.736371651476,"perigee_km":358.98211661943,"apogee_km":360.44018695948,"semimajor_km":6737.8481517895,"source":"CELESTRAK","updated_at":"2026-05-25T13:38:19.360715Z"}}